| time (UTC) | temp F | wind direction | speed MPH | gust MPH | rain 1hr in | rain 24hr in | rain mn in | humidity % | barometer mb |
| 20260504004021 | 89 | 232 | 5.0 | 5.0 | 0.00 | 0.00 | 0.00 | 11 | 1003.5 |
| 20260504003026 | 90 | 218 | 5.0 | 162.0 | 0.00 | 0.00 | 0.00 | 11 | 1003.4 |
| 20260504002042 | 90 | 238 | 6.0 | 6.0 | 0.00 | 0.00 | 0.00 | 10 | 1003.4 |
| 20260504001028 | 90 | 226 | 5.0 | 162.0 | 0.00 | 0.00 | 0.00 | 10 | 1003.3 |
| 20260504000019 | 90 | 236 | 6.0 | 162.0 | 0.00 | 0.00 | 0.00 | 10 | 1003.3 |
| 20260503235025 | 90 | 235 | 6.0 | 161.0 | 0.00 | 0.00 | 0.00 | 11 | 1003.3 |
| 20260503234024 | 91 | 221 | 6.0 | 161.0 | 0.00 | 0.00 | 0.00 | 11 | 1003.0 |
| 20260503233059 | 91 | 239 | 6.0 | 7.0 | 0.00 | 0.00 | 0.00 | 11 | 1003.2 |
| 20260503232047 | 91 | 222 | 7.0 | 162.0 | 0.00 | 0.00 | 0.00 | 11 | 1003.1 |
| 20260503231029 | 91 | 232 | 6.0 | 161.0 | 0.00 | 0.00 | 0.00 | 12 | 1003.1 |
| 20260503230024 | 91 | 223 | 5.0 | 162.0 | 0.00 | 0.00 | 0.00 | 13 | 1003.1 |
| 20260503225021 | 91 | 228 | 6.0 | 7.0 | 0.00 | 0.00 | 0.00 | 14 | 1003.2 |
| 20260503224038 | 91 | 228 | 5.0 | 162.0 | 0.00 | 0.00 | 0.00 | 15 | 1003.4 |
| 20260503223036 | 91 | 249 | 4.0 | 4.0 | 0.00 | 0.00 | 0.00 | 16 | 1003.4 |
| 20260503222025 | 91 | 218 | 2.0 | 2.0 | 0.00 | 0.00 | 0.00 | 18 | 1003.4 |
| 20260503221019 | 90 | 215 | 2.0 | 2.0 | 0.00 | 0.00 | 0.00 | 20 | 1003.5 |
| 20260503220025 | 90 | 179 | 2.0 | 2.0 | 0.00 | 0.00 | 0.00 | 21 | 1003.5 |
| 20260503215028 | 90 | 72 | 2.0 | 2.0 | 0.00 | 0.00 | 0.00 | 21 | 1003.6 |
| 20260503214027 | 89 | 90 | 2.0 | 2.0 | 0.00 | 0.00 | 0.00 | 22 | 1004.1 |
| 20260503213024 | 88 | 259 | 2.0 | 2.0 | 0.00 | 0.00 | 0.00 | 22 | 1004.2 |
| 20260503212022 | 88 | 224 | 2.0 | 2.0 | 0.00 | 0.00 | 0.00 | 22 | 1004.5 |
| 20260503211025 | 88 | 175 | 2.0 | 2.0 | 0.00 | 0.00 | 0.00 | 23 | 1004.6 |
| 20260503210028 | 88 | 281 | 2.0 | 2.0 | 0.00 | 0.00 | 0.00 | 24 | 1004.8 |
| 20260503205035 | 87 | 192 | 2.0 | 2.0 | 0.00 | 0.00 | 0.00 | 23 | 1004.9 |
| 20260503204039 | 87 | 102 | 2.0 | 2.0 | 0.00 | 0.00 | 0.00 | 23 | 1005.0 |
| 20260503203055 | 86 | 247 | 2.0 | 3.0 | 0.00 | 0.00 | 0.00 | 24 | 1005.2 |
| 20260503202040 | 86 | 150 | 2.0 | 2.0 | 0.00 | 0.00 | 0.00 | 24 | 1005.2 |
| 20260503201026 | 86 | 189 | 2.0 | 2.0 | 0.00 | 0.00 | 0.00 | 25 | 1005.4 |
| 20260503200022 | 86 | 171 | 2.0 | 2.0 | 0.00 | 0.00 | 0.00 | 25 | 1005.5 |
| 20260503195038 | 85 | 90 | 2.0 | 2.0 | 0.00 | 0.00 | 0.00 | 26 | 1005.7 |
| 20260503194031 | 85 | 161 | 2.0 | 2.0 | 0.00 | 0.00 | 0.00 | 27 | 1005.9 |
| 20260503193046 | 85 | 210 | 2.0 | 2.0 | 0.00 | 0.00 | 0.00 | 27 | 1006.0 |
| 20260503192025 | 84 | 217 | 2.0 | 3.0 | 0.00 | 0.00 | 0.00 | 27 | 1006.1 |
| 20260503191109 | 84 | 172 | 2.0 | 3.0 | 0.00 | 0.00 | 0.00 | 28 | 1006.1 |
| 20260503190037 | 84 | 195 | 3.0 | 3.0 | 0.00 | 0.00 | 0.00 | 28 | 1006.3 |
| 20260503185028 | 84 | 167 | 3.0 | 3.0 | 0.00 | 0.00 | 0.00 | 28 | 1006.5 |
| 20260503184033 | 83 | 173 | 3.0 | 3.0 | 0.00 | 0.00 | 0.00 | 28 | 1006.7 |
| 20260503183020 | 83 | 232 | 3.0 | 3.0 | 0.00 | 0.00 | 0.00 | 29 | 1006.8 |
| 20260503182025 | 83 | 168 | 3.0 | 3.0 | 0.00 | 0.00 | 0.00 | 29 | 1006.9 |
| 20260503181027 | 83 | 205 | 3.0 | 3.0 | 0.00 | 0.00 | 0.00 | 29 | 1007.1 |
| 20260503180030 | 83 | 199 | 2.0 | 3.0 | 0.00 | 0.00 | 0.00 | 29 | 1007.3 |
| 20260503175023 | 83 | 197 | 2.0 | 3.0 | 0.00 | 0.00 | 0.00 | 29 | 1007.4 |
| 20260503174021 | 82 | 190 | 3.0 | 3.0 | 0.00 | 0.00 | 0.00 | 29 | 1007.5 |
| 20260503173039 | 82 | 197 | 3.0 | 3.0 | 0.00 | 0.00 | 0.00 | 29 | 1007.5 |
| 20260503172028 | 82 | 216 | 2.0 | 3.0 | 0.00 | 0.00 | 0.00 | 30 | 1007.7 |
| 20260503171022 | 82 | 190 | 3.0 | 3.0 | 0.00 | 0.00 | 0.00 | 30 | 1007.7 |
| 20260503131029 | 75 | 177 | 1.0 | 1.0 | 0.00 | 0.00 | 0.00 | 34 | 1007.0 |
| 20260503081030 | 79 | 204 | 2.0 | 2.0 | 0.00 | 0.00 | 0.00 | 29 | 1006.8 |
| 20260503072027 | 80 | 203 | 2.0 | 2.0 | 0.00 | 0.00 | 0.00 | 28 | 1006.9 |
| 20260503071024 | 80 | 190 | 2.0 | 2.0 | 0.00 | 0.00 | 0.00 | 27 | 1007.0 |
| 20260503055025 | 82 | 172 | 1.0 | 1.0 | 0.00 | 0.00 | 0.00 | 24 | 1005.9 |
| 20260503054022 | 82 | 184 | 1.0 | 2.0 | 0.00 | 0.00 | 0.00 | 25 | 1005.9 |
| 20260503053028 | 83 | 133 | 1.0 | 2.0 | 0.00 | 0.00 | 0.00 | 25 | 1005.9 |
| 20260503052033 | 82 | 164 | 1.0 | 1.0 | 0.00 | 0.00 | 0.00 | 25 | 1006.0 |
| 20260503051039 | 83 | 41 | 2.0 | 2.0 | 0.00 | 0.00 | 0.00 | 25 | 1005.9 |
| 20260503050042 | 83 | 144 | 2.0 | 2.0 | 0.00 | 0.00 | 0.00 | 24 | |
| 20260503045039 | 83 | 59 | 2.0 | 2.0 | 0.00 | 0.00 | 0.00 | 23 | 1005.7 |
| 20260503044024 | 83 | 8 | 1.0 | 1.0 | 0.00 | 0.00 | 0.00 | 23 | |
| 20260503043030 | 83 | 184 | 1.0 | 1.0 | 0.00 | 0.00 | 0.00 | 23 | 1005.5 |
| 20260503042057 | 83 | 177 | 1.0 | 1.0 | 0.00 | 0.00 | 0.00 | 22 | 1005.4 |
| 20260503041032 | 84 | 129 | 0.0 | 1.0 | 0.00 | 0.00 | 0.00 | 22 | 1005.3 |
| 20260503040030 | 84 | 161 | 0.0 | 1.0 | 0.00 | 0.00 | 0.00 | 22 | 1005.1 |
| 20260503035021 | 84 | 103 | 1.0 | 1.0 | 0.00 | 0.00 | 0.00 | 22 | 1005.1 |
| 20260503034028 | 84 | 55 | 1.0 | 1.0 | 0.00 | 0.00 | 0.00 | 22 | 1005.1 |
| 20260503033024 | 84 | 100 | 1.0 | 1.0 | 0.00 | 0.00 | 0.00 | 21 | 1005.1 |
| 20260503032022 | 85 | 100 | 1.0 | 1.0 | 0.00 | 0.00 | 0.00 | 21 | 1005.1 |
| 20260503031019 | 85 | 22 | 1.0 | 1.0 | 0.00 | 0.00 | 0.00 | 21 | 1005.0 |
| 20260503030045 | 85 | 66 | 1.0 | 2.0 | 0.00 | 0.00 | 0.00 | 20 | 1004.9 |
| 20260503025044 | 86 | 124 | 1.0 | 1.0 | 0.00 | 0.00 | 0.00 | 20 | 1004.8 |
| 20260503024040 | 86 | 73 | 0.0 | 1.0 | 0.00 | 0.00 | 0.00 | 19 | 1004.6 |
| 20260503023037 | 86 | 52 | 0.0 | 1.0 | 0.00 | 0.00 | 0.00 | 19 | 1004.6 |
| 20260503022027 | 87 | 56 | 0.0 | 0.0 | 0.00 | 0.00 | 0.00 | 19 | 1004.6 |
| 20260503021042 | 87 | 35 | 0.0 | 1.0 | 0.00 | 0.00 | 0.00 | 17 | 1004.6 |
| 20260503020021 | 87 | 82 | 1.0 | 1.0 | 0.00 | 0.00 | 0.00 | 18 | 1004.6 |
| 20260503015030 | 88 | 54 | 0.0 | 1.0 | 0.00 | 0.00 | 0.00 | 16 | 1004.8 |
| 20260503014053 | 88 | 149 | 0.0 | 1.0 | 0.00 | 0.00 | 0.00 | 16 | 1004.8 |
| 20260503013023 | 88 | 60 | 0.0 | 1.0 | 0.00 | 0.00 | 0.00 | 16 | 1004.8 |
| 20260503012040 | 88 | 315 | 1.0 | 1.0 | 0.00 | 0.00 | 0.00 | 16 | 1004.8 |
| 20260503011038 | 89 | 237 | 1.0 | 1.0 | 0.00 | 0.00 | 0.00 | 16 | 1004.9 |
| 20260503010024 | 89 | 214 | 1.0 | 1.0 | 0.00 | 0.00 | 0.00 | 16 | 1004.9 |
| 20260503005035 | 89 | 203 | 0.0 | 1.0 | 0.00 | 0.00 | 0.00 | 16 | 1004.9 |